TimeMST,TemperatureF,Dew PointF,Humidity,Sea Level PressureIn,VisibilityMPH,Wind Direction,Wind SpeedMPH,Gust SpeedMPH,PrecipitationIn,Events,Conditions,WindDirDegrees,DateUTC
12:53 AM,25.0,-5.1,27,30.19,10.0,WNW,6.9,-,N/A,,Clear,300,2013-02-28 07:53:00
1:53 AM,21.9,-9.0,25,30.20,10.0,NE,4.6,-,N/A,,Clear,40,2013-02-28 08:53:00
2:53 AM,24.1,-8.0,24,30.18,10.0,NE,8.1,-,N/A,,Clear,50,2013-02-28 09:53:00
3:53 AM,26.1,-4.0,27,30.18,10.0,NNE,4.6,-,N/A,,Clear,30,2013-02-28 10:53:00
4:53 AM,23.0,-0.9,35,30.19,10.0,Calm,Calm,-,N/A,,Clear,0,2013-02-28 11:53:00
5:53 AM,23.0,1.0,39,30.22,10.0,Calm,Calm,-,N/A,,Clear,0,2013-02-28 12:53:00
7:53 AM,27.0,1.0,33,30.30,10.0,Calm,Calm,-,N/A,,Clear,0,2013-02-28 14:53:00
8:53 AM,39.0,1.0,20,30.30,10.0,ENE,8.1,-,N/A,,Clear,70,2013-02-28 15:53:00
9:53 AM,46.9,3.0,16,30.28,10.0,ENE,16.1,-,N/A,,Clear,60,2013-02-28 16:53:00
10:53 AM,50.0,1.9,14,30.27,10.0,East,10.4,-,N/A,,Clear,90,2013-02-28 17:53:00
11:53 AM,52.0,1.0,12,30.26,10.0,East,11.5,-,N/A,,Clear,80,2013-02-28 18:53:00
12:53 PM,54.0,-0.9,11,30.24,10.0,NE,9.2,-,N/A,,Clear,40,2013-02-28 19:53:00
1:53 PM,55.0,-0.9,10,30.22,10.0,East,11.5,18.4,N/A,,Clear,90,2013-02-28 20:53:00
2:53 PM,55.0,-0.9,10,30.22,10.0,Variable,4.6,-,N/A,,Clear,0,2013-02-28 21:53:00
3:53 PM,55.0,-0.9,10,30.21,10.0,SE,6.9,-,N/A,,Clear,130,2013-02-28 22:53:00
4:53 PM,55.9,-2.0,9,30.20,10.0,NE,4.6,-,N/A,,Clear,50,2013-02-28 23:53:00
5:53 PM,53.1,-2.0,10,30.22,10.0,Calm,Calm,-,N/A,,Clear,0,2013-03-01 00:53:00
6:53 PM,48.0,-2.0,13,30.25,10.0,WSW,3.5,-,N/A,,Clear,240,2013-03-01 01:53:00
7:53 PM,45.0,-0.0,15,30.26,10.0,WSW,3.5,-,N/A,,Clear,250,2013-03-01 02:53:00
8:53 PM,39.0,-2.0,18,30.25,10.0,NW,6.9,-,N/A,,Clear,320,2013-03-01 03:53:00
9:53 PM,36.0,-2.0,20,30.25,10.0,WNW,9.2,-,N/A,,Clear,290,2013-03-01 04:53:00
10:53 PM,34.0,-2.9,21,30.26,10.0,WNW,6.9,-,N/A,,Clear,300,2013-03-01 05:53:00
11:53 PM,33.1,-0.9,23,30.25,10.0,WNW,10.4,-,N/A,,Clear,290,2013-03-01 06:53:00